• MPC Preparation (Info)

  • MPEC 2016-O224: 2014 KD102

    The following Minor Planet Electronic Circular may be linked-to from your own Web pages, but must not otherwise be redistributed electronically.

    A form allowing access to any MPEC is at the bottom of this page.


    Read MPEC 2016-O223 Read MPEC 2016-O225


    M.P.E.C. 2016-O224                               Issued 2016 July 17, 17:55 UT
    
         The Minor Planet Electronic Circulars contain information on unusual
             minor planets and routine data on comets.  They are published
        on behalf of Division F of the International Astronomical Union by the
              Minor Planet Center, Smithsonian Astrophysical Observatory,
                              Cambridge, MA 02138, U.S.A.
    
                 Prepared using the Tamkin Foundation Computer Network
    
                                  MPC@CFA.HARVARD.EDU
                URL https://www.minorplanetcenter.net/    ISSN 1523-6714
    
                                      2014 KD102
    
    Observations:
         K14KA2D  C2013 07 01.32021 16 35 53.278-15 57 43.61         22.0 wLEO224F51
         K14KA2D  C2013 07 01.34692 16 35 53.119-15 57 43.19         22.0 wLEO224F51
         K14KA2D  C2013 07 01.36026 16 35 53.030-15 57 43.37         22.2 wLEO224F51
         K14KA2D* C2014 05 28.39730 16 49 26.246-16 12 29.67         22.0 wLEO224F51
         K14KA2D  C2014 05 28.41000 16 49 26.158-16 12 29.45         22.0 wLEO224F51
         K14KA2D  C2014 05 28.42271 16 49 26.081-16 12 29.37         22.0 wLEO224F51
         K14KA2D  C2014 06 24.37942 16 46 35.192-16 07 15.52         22.2 wLEO224F51
         K14KA2D  C2014 06 24.39225 16 46 35.114-16 07 15.63         22.3 wLEO224F51
         K14KA2D  C2014 06 24.40508 16 46 35.033-16 07 15.38         22.2 wLEO224F51
         K14KA2D  C2014 06 24.41786 16 46 34.967-16 07 15.20         22.1 wLEO224F51
         K14KA2D  C2014 07 02.32765 16 45 49.359-16 06 18.71         22.1 wLEO224F51
         K14KA2D  C2014 07 02.34027 16 45 49.306-16 06 18.54         22.3 wLEO224F51
         K14KA2D  C2014 07 02.35288 16 45 49.243-16 06 18.65         22.5 wLEO224F51
         K14KA2D  C2014 07 02.36546 16 45 49.164-16 06 18.32         22.0 wLEO224F51
         K14KA2D  C2015 07 14.34381 16 54 49.529-16 12 34.51         22.2 wLEO224F51
         K14KA2D  C2015 07 14.35703 16 54 49.479-16 12 34.65         22.3 wLEO224F51
         K14KA2D  C2015 07 14.38075 16 54 49.352-16 12 34.56         22.4 wLEO224F51
    
    Observer details:
    F51 Pan-STARRS 1, Haleakala.  Observers B. Gibson, T. Goggia, N. Primak,
        A. Schultz, M. Willman.  Measurers K. Chambers, S. Chastel, Y.-T. Chen,
        L. Denneau, H. Flewelling, M. Holman, M. Huber, R. Jedicke, M. Lackner,
        E. Lilly, H.-W. Lin, E. Magnier, M. Micheli, M. Payne, P. Veres,
        R. Wainscoat, C. Waters, R. Weryk.  1.8-m Ritchey-Chretien + CCD.
    
    Orbital elements:
    2014 KD102
    Epoch 2016 July 31.0 TT = JDT 2457600.5                 MPC
    M   1.76876              (2000.0)            P               Q
    n   0.00394847     Peri.   57.78037     -0.25727264     +0.96559447
    a  39.6445666      Node   197.43219     -0.92373644     -0.25726468
    e   0.2261693      Incl.    7.27237     -0.28376358     -0.03797626
    P 250              H    7.1           G   0.15           U   3
    Residuals in seconds of arc
    130701 F51  0.2+  0.0     140624 F51  0.0   0.0     140702 F51  0.1+  0.2-
    130701 F51  0.0   0.3+    140624 F51  0.0   0.2-    140702 F51  0.0   0.1+
    130701 F51  0.2-  0.0     140624 F51  0.0   0.1-    150714 F51  0.1-  0.2+
    140528 F51  0.0   0.0     140624 F51  0.2+  0.0     150714 F51  0.1+  0.0
    140528 F51  0.1-  0.0     140702 F51  0.3-  0.1-    150714 F51  0.0   0.1+
    140528 F51  0.0   0.1-    140702 F51  0.0   0.0
    
    Ephemeris:
    2014 KD102               a,e,i = 39.64, 0.23, 7                  q = 30.678
    Date    TT    R. A. (2000) Decl.     Delta      r     Elong.  Phase     V
    2016 06 17    17 07 27.0 -16 19 55  29.6856 30.6840   169.1     0.4    22.0
    ...
    2016 07 02    17 05 54.6 -16 18 24  29.7543 30.6844   155.8     0.8    22.0
    ...
    2016 07 10    17 05 10.0 -16 18 00  29.8158 30.6847   148.2     1.0    22.1
    ...
    2016 07 16    17 04 39.5 -16 17 53  29.8724 30.6848   142.5     1.2    22.1
    2016 07 17    17 04 34.7 -16 17 53  29.8826 30.6849   141.5     1.2    22.1
    2016 07 18    17 04 30.0 -16 17 53  29.8931 30.6849   140.6     1.2    22.1
    ...
    2016 07 24    17 04 03.6 -16 18 01  29.9605 30.6851   134.8     1.3    22.1
    ...
    2016 08 01    17 03 34.1 -16 18 26  30.0617 30.6853   127.2     1.5    22.1
    ...
    2016 08 16    17 02 58.1 -16 20 02  30.2800 30.6858   112.8     1.7    22.2
    
    A. U. Tomatic                (C) Copyright 2016 MPC           M.P.E.C. 2016-O224
    

    Read MPEC 2016-O223 Read MPEC 2016-O225


    MPEC number:

    Enter an MPEC number in one of the following forms:

    • 1997-B01 (the full form)
    • J97B01 (the packed version of the full form)
    • B01 (the abbreviated form)